• In Moldova, Republic
  • List of Countries
  • For 7 days
  • Water Temperature
  • Satellite Maps
  • Weather Map
  • Weather Widgets
  • user-avatar
    Login

    Hourly Weather Gold Coast

    Today, 12 December, Tuesday

    Time Temperature Precipitation Wind Pressure Humidity
    00:00 +19°C° 0 mm 4 mps 759 mmHg 88%
    01:00 +18°C° 0 mm 4 mps 758 mmHg 90%
    02:00 +18°C° 0 mm 4 mps 758 mmHg 90%
    03:00 +18°C° 0 mm 4 mps 758 mmHg 91%
    04:00 +18°C° 0 mm 4 mps 758 mmHg 92%
    05:00 +20°C° 0.1 mm 5 mps 758 mmHg 86%
    06:00 +21°C° 0.1 mm 5 mps 758 mmHg 79%
    07:00 +23°C° 0.1 mm 5 mps 758 mmHg 73%
    08:00 +25°C° 0 mm 5 mps 758 mmHg 66%
    09:00 +27°C° 0 mm 6 mps 758 mmHg 59%
    10:00 +29°C° 0 mm 6 mps 758 mmHg 52%
    11:00 +29°C° 0 mm 6 mps 758 mmHg 49%
    12:00 +30°C° 0 mm 6 mps 758 mmHg 46%
    13:00 +32°C° 0 mm 7 mps 758 mmHg 43%
    14:00 +30°C° 0 mm 6 mps 758 mmHg 46%
    15:00 +30°C° 0 mm 6 mps 758 mmHg 48%
    16:00 +29°C° 0 mm 6 mps 757 mmHg 50%
    17:00 +27°C° 0 mm 6 mps 758 mmHg 59%
    18:00 +25°C° 0 mm 5 mps 758 mmHg 68%
    19:00 +22°C° 0 mm 5 mps 758 mmHg 77%
    20:00 +21°C° 0 mm 5 mps 758 mmHg 81%
    21:00 +21°C° 0 mm 4 mps 759 mmHg 86%
    22:00 +20°C° 0 mm 4 mps 759 mmHg 90%
    23:00 +20°C° 0 mm 4 mps 758 mmHg 91%

    Tomorrow, 13 December, Wednesday

    Time Temperature Precipitation Wind Pressure Humidity
    00:00 +20°C° 0 mm 4 mps 758 mmHg 91%
    01:00 +19°C° 0 mm 3 mps 758 mmHg 92%
    02:00 +19°C° 0 mm 3 mps 758 mmHg 93%
    03:00 +19°C° 0 mm 3 mps 757 mmHg 93%
    04:00 +19°C° 0 mm 3 mps 757 mmHg 94%
    05:00 +20°C° 0 mm 3 mps 758 mmHg 88%
    06:00 +22°C° 0 mm 3 mps 758 mmHg 82%
    07:00 +24°C° 0 mm 3 mps 758 mmHg 77%
    08:00 +26°C° 0 mm 4 mps 758 mmHg 67%
    09:00 +28°C° 0 mm 4 mps 758 mmHg 57%
    10:00 +30°C° 0 mm 4 mps 758 mmHg 47%
    11:00 +32°C° 0 mm 4 mps 757 mmHg 45%
    12:00 +32°C° 0 mm 4 mps 757 mmHg 42%
    13:00 +33°C° 0 mm 5 mps 757 mmHg 39%
    14:00 +32°C° 0 mm 5 mps 756 mmHg 42%
    15:00 +30°C° 0 mm 5 mps 756 mmHg 45%
    16:00 +30°C° 0 mm 5 mps 755 mmHg 47%
    17:00 +28°C° 0 mm 4 mps 756 mmHg 56%
    18:00 +25°C° 0 mm 4 mps 756 mmHg 66%
    19:00 +22°C° 0 mm 4 mps 757 mmHg 75%
    20:00 +21°C° 0 mm 3 mps 757 mmHg 79%
    21:00 +21°C° 0 mm 3 mps 757 mmHg 84%
    22:00 +20°C° 0 mm 2 mps 758 mmHg 88%
    23:00 +19°C° 0 mm 2 mps 757 mmHg 89%

    Day after tomorrow, 14 December, Thursday

    Time Temperature Precipitation Wind Pressure Humidity
    00:00 +19°C° 0 mm 2 mps 757 mmHg 90%
    01:00 +20°C° 0 mm 1 mps 757 mmHg 92%
    02:00 +20°C° 0 mm 1 mps 756 mmHg 92%
    03:00 +19°C° 0 mm 1 mps 756 mmHg 93%
    04:00 +19°C° 0 mm 1 mps 756 mmHg 94%
    05:00 +21°C° 0 mm 1 mps 756 mmHg 86%
    06:00 +23°C° 0 mm 1 mps 757 mmHg 78%
    07:00 +25°C° 0 mm 1 mps 757 mmHg 70%
    08:00 +27°C° 0 mm 1 mps 757 mmHg 60%
    09:00 +29°C° 0 mm 2 mps 756 mmHg 50%
    10:00 +31°C° 0 mm 2 mps 756 mmHg 41%
    11:00 +32°C° 0 mm 2 mps 756 mmHg 39%
    12:00 +34°C° 0 mm 3 mps 755 mmHg 38%
    13:00 +34°C° 0 mm 3 mps 755 mmHg 36%
    14:00 +34°C° 0 mm 4 mps 754 mmHg 40%
    15:00 +33°C° 0 mm 4 mps 754 mmHg 43%
    16:00 +32°C° 0 mm 4 mps 754 mmHg 47%
    17:00 +29°C° 0 mm 4 mps 754 mmHg 56%
    18:00 +27°C° 0 mm 4 mps 755 mmHg 66%
    19:00 +25°C° 0 mm 3 mps 755 mmHg 76%
    20:00 +24°C° 0 mm 3 mps 756 mmHg 81%
    21:00 +22°C° 0 mm 3 mps 756 mmHg 87%
    22:00 +21°C° 0 mm 3 mps 756 mmHg 92%
    23:00 +21°C° 0 mm 3 mps 756 mmHg 92%

    15 December, Friday

    Time Temperature Precipitation Wind Pressure Humidity
    00:00 +23°C° 0 mm 2 mps 756 mmHg 92%
    01:00 +23°C° 0 mm 2 mps 755 mmHg 92%
    02:00 +21°C° 0 mm 2 mps 755 mmHg 92%
    03:00 +21°C° 0 mm 2 mps 755 mmHg 92%
    04:00 +21°C° 0 mm 2 mps 755 mmHg 92%
    05:00 +23°C° 0 mm 2 mps 756 mmHg 86%
    06:00 +25°C° 0 mm 2 mps 756 mmHg 80%
    07:00 +26°C° 0 mm 2 mps 756 mmHg 74%
    08:00 +28°C° 0 mm 2 mps 756 mmHg 65%
    09:00 +30°C° 0 mm 2 mps 756 mmHg 56%
    10:00 +33°C° 0 mm 3 mps 756 mmHg 47%
    11:00 +34°C° 0 mm 3 mps 756 mmHg 44%
    12:00 +34°C° 0 mm 3 mps 755 mmHg 42%
    13:00 +35°C° 0 mm 4 mps 755 mmHg 40%
    14:00 +34°C° 0 mm 4 mps 755 mmHg 43%
    15:00 +33°C° 0 mm 4 mps 754 mmHg 47%
    16:00 +32°C° 0 mm 5 mps 754 mmHg 50%
    17:00 +29°C° 0 mm 4 mps 755 mmHg 60%
    18:00 +27°C° 0 mm 4 mps 755 mmHg 70%
    19:00 +25°C° 0 mm 4 mps 756 mmHg 80%
    20:00 +25°C° 0 mm 4 mps 757 mmHg 84%
    21:00 +23°C° 0 mm 4 mps 757 mmHg 87%
    22:00 +24°C° 0 mm 3 mps 758 mmHg 91%
    23:00 +22°C° 0 mm 3 mps 757 mmHg 91%

    16 December, Saturday

    Time Temperature Precipitation Wind Pressure Humidity
    00:00 +22°C° 0 mm 3 mps 757 mmHg 92%
    01:00 +22°C° 0 mm 3 mps 757 mmHg 92%
    02:00 +22°C° 0 mm 3 mps 757 mmHg 92%
    03:00 +23°C° 0 mm 2 mps 757 mmHg 92%
    04:00 +21°C° 0 mm 2 mps 757 mmHg 93%
    05:00 +24°C° 0 mm 2 mps 757 mmHg 87%
    06:00 +25°C° 0 mm 2 mps 758 mmHg 81%
    07:00 +26°C° 0 mm 2 mps 758 mmHg 75%
    08:00 +28°C° 0 mm 2 mps 758 mmHg 66%
    09:00 +29°C° 0 mm 3 mps 758 mmHg 57%
    10:00 +31°C° 0 mm 3 mps 758 mmHg 49%
    11:00 +33°C° 0 mm 3 mps 757 mmHg 45%
    12:00 +34°C° 0 mm 3 mps 757 mmHg 42%
    13:00 +35°C° 0 mm 3 mps 756 mmHg 38%
    14:00 +34°C° 0 mm 4 mps 756 mmHg 42%
    15:00 +33°C° 0 mm 4 mps 756 mmHg 45%
    16:00 +32°C° 0 mm 4 mps 755 mmHg 48%
    17:00 +29°C° 0 mm 4 mps 756 mmHg 57%
    18:00 +27°C° 0 mm 4 mps 756 mmHg 66%
    19:00 +25°C° 0 mm 4 mps 756 mmHg 75%
    20:00 +23°C° 0 mm 4 mps 757 mmHg 79%
    21:00 +24°C° 0 mm 3 mps 757 mmHg 84%
    22:00 +22°C° 0 mm 3 mps 758 mmHg 89%
    23:00 +22°C° 0 mm 3 mps 757 mmHg 89%

    17 December, Sunday

    Time Temperature Precipitation Wind Pressure Humidity
    00:00 +22°C° 0 mm 3 mps 757 mmHg 90%
    01:00 +23°C° 0 mm 2 mps 757 mmHg 90%
    02:00 +23°C° 0 mm 2 mps 757 mmHg 90%
    03:00 +21°C° 0 mm 2 mps 757 mmHg 91%
    04:00 +21°C° 0 mm 2 mps 757 mmHg 91%
    05:00 +24°C° 0 mm 2 mps 758 mmHg 84%
    06:00 +25°C° 0 mm 2 mps 758 mmHg 77%
    07:00 +26°C° 0 mm 2 mps 758 mmHg 69%
    08:00 +28°C° 0 mm 3 mps 758 mmHg 62%
    09:00 +29°C° 0 mm 3 mps 758 mmHg 55%
    10:00 +31°C° 0 mm 3 mps 758 mmHg 47%
    11:00 +32°C° 0 mm 4 mps 758 mmHg 46%
    12:00 +33°C° 0 mm 4 mps 758 mmHg 45%
    13:00 +33°C° 0 mm 4 mps 757 mmHg 43%
    14:00 +33°C° 0 mm 4 mps 757 mmHg 47%
    15:00 +32°C° 0 mm 5 mps 757 mmHg 50%
    16:00 +30°C° 0 mm 5 mps 757 mmHg 53%
    17:00 +28°C° 0 mm 4 mps 757 mmHg 62%
    18:00 +27°C° 0 mm 4 mps 758 mmHg 72%
    19:00 +25°C° 0 mm 4 mps 758 mmHg 81%
    20:00 +23°C° 0.1 mm 4 mps 759 mmHg 85%
    21:00 +22°C° 0.1 mm 4 mps 759 mmHg 89%
    22:00 +22°C° 0.1 mm 4 mps 759 mmHg 93%
    23:00 +22°C° 0.1 mm 3 mps 759 mmHg 93%
    Show more